Wind_Gust
0 0 0 0 0 0 0 0 0 0 0 0 0 0 0 0 0 0 0 0 0 0 0 0 0 0 0 0 0 0 0 0 0 0 0 0 0 0 0 0 0 0 0 0 0 0 0 0 0 0 0 0 0 0 0 0 0 0 0 0 0 0 0 0 0 0 0 0 0 0 0 0 0 0 0 0 0 0 0 0 0 0 0 0 0
0 0 0 0 0 0 0 0 0 0 0 0 0 0 0 0 0 0 0 0 0 0 0 0 0 0 0 0 0 0 0 0 0 0 0 0 0 0 0 0 0 0 0 0 0 0 0 0 0 0 0 0 0 0 0 0 0 0 0 0 0 0 0 0 0 0 0 0 0 0 0 0 0 0 0 0 0 0 0 0 0 0 0 0 0
0 0 0 0 0 0 0 0 0 0 0 0 0 0 0 0 0 0 0 0 0 0 0 0 0 0 0 0 0 0 0 0 0 0 0 0 0 0 0 0 0 0 0 0 0 0 0 0 0 0 0 0 0 0 0 0 0 0 0 0 0 0 0 0 0 0 0 0 0 0 0 0 0 0 0 0 0 0 0 0 0 0 0 0 0
0 0 0 0 0 0 0 0 0 0 0 0 0 0 0 0 0 0 0 0 0 0 0 0 0 0 0 0 0 0 0 0 0 0 0 0 0 0 0 0 0 0 0 0 0 0 0 0 0 0 0 0 0 0 0 0 0 0 0 0 0 0 0 0 0 0 0 0 0 0 0 0 0 0 0 0 0 0 0 0 0 0 0 0 0
0 0 0 0 0 0 0 0 0 0 0 0 0 0 0 0 0 0 0 0 0 0 0 0 0 0 0 0 0 0 0 0 0 0 0 0 0 0 0 0 0 0 0 0 0 0 0 0 0 0 0 0 0 0 0 0 0 0 0 0 0 0 0 0 0 0 0 0 0 0 0 0 0 0 0 0 0 0 0 0 0 0 0 0 0
0 0 0 0 0 0 0 0 0 0 0 0 0 0 0 0 0 0 0 0 0 0 0 0 0 0 0 0 0 0 0 0 0 0 0 0 0 0 0 0 0 0 0 0 0 0 0 0 0 0 0 0 0 0 0 0 0 0 0 0 0 0 0 0 0 0 0 0 0 0 0 0 0 0 0 0 0 0 0 0 0 0 0 0 0
0 0 0 0 0 0 0 0 0 0 0 0 0 0 0 0 0 0 0 0 0 0 0 0 0 0 0 0 0 0 0 0 0 0 0 0 0 0 0 0 0 0 0 0 0 0 0 0 0 0 0 0 0 0 0 0 0 0 0 0 0 0 0 0 0 0 0 0 0 0 0 0 0 0 0 0 0 0 0 0 0 0 0 0 0
0 0 0 0 0 0 0 0 0 0 0 0 0 0 0 0 0 0 0 0 0 0 0 0 0 0 0 0 0 0 0 0 0 0 0 0 0 0 0 0 0 0 0 0 0 0 0 0 0 0 0 0 0 0 0 0 0 0 0 0 0 0 0 0 0 0 0 0 0 0 0 0 0 0 0 0 0 0 0 0 0 0 0 0 0
0 0 0 0 0 0 0 0 0 0 0 0 0 0 0 0 0 0 0 0 0 0 0 0 0 0 0 0 0 0 0 0 0 0 0 0 0 0 0 0 0 0 0 0 0 0 0 0 0 0 0 0 0 0 0 0 0 0 0 0 0 0 0 0 0 0 0 0 0 0 0 0 0 0 0 0 0 0 0 0 0 0 0 0 0
0 0 0 0 0 0 0 0 0 0 0 0 0 0 0 0 0 0 0 0 0 0 0 0 0 0 0 0 0 0 0 0 0 0 0 0 0 0 0 0 0 0 0 0 0 0 0 0 0 0 0 0 0 0 0 0 0 0 0 0 0 0 0 0 0 0 0 0 0 0 0 0 0 0 0 0 0 0 0 0 0 0 0 0 0
0 0 0 0 0 0 0 0 0 0 0 0 0 0 0 0 0 0 0 0 0 0 0 0 0 0 0 0 0 0 0 0 0 0 0 0 0 0 0 0 0 0 0 0 0 0 0 0 0 0 0 0 0 0 0 0 0 0 0 0 0 0 0 0 0 0 0 0 0 0 0 0 0 0 0 0 0 0 0 0 0 0 0 0 0
0 0 0 0 0 0 0 0 0 0 0 0 0 0 0 0 0 0 0 0 0 0 0 0 0 0 0 0 0 0 0 0 0 0 0 0 0 0 0 0 0 0 0 0 0 0 0 0 0 0 0 0 0 0 0 0 0 0 0 0 0 0 0 0 0 0 0 0 0 0 0 0 0 0 0 0 0 0 0 0 0 0 0 0 0
0 0 0 0 0 0 0 0 0 0 0 0 0 0 0 0 0 0 0 0 0 0 0 0 0 0 0 0 0 0 0 0 0 0 0 0 0 0 0 0 0 0 0 0 0 0 0 0 0 0 0 0 0 0 0 0 0 0 0 0 0 0 0 0 0 0 0 0 0 0 0 0 0 0 0 0 0 0 0 0 0 0 0 0 0
0 0 0 0 0 0 0 0 0 0 0 0 0 0 0 0 0 0 0 0 0 0 0 0 0 0 0 0 0 0 0 0 0 0 0 0 0 0 0 0 0 0 0 0 0 0 0 0 0 0 0 0 0 0 0 0 0 0 0 0 0 0 0 0 0 0 0 0 0 0 0 0 0 0 0 0 0 0 0 0 0 0 0 0 0
0 0 0 0 0 0 0 0 0 0 0 0 0 0 0 0 0 0 0 0 0 0 0 0 0 0 0 0 0 0 0 0 0 0 0 0 0 0 0 0 0 0 0 0 0 0 0 0 0 0 0 0 0 0 0 0 0 0 0 0 0 0 0 0 0 0 0 0 0 0 0 0 0 0 0 0 0 0 0 0 0 0 0 0 0
0 0 0 0 0 0 0 0 0 0 0 0 0 0 0 0 0 0 0 0 0 0 0 0 0 0 0 0 0 0 0 0 0 0 0 0 0 0 0 0 0 0 0 0 0 0 0 0 0 0 0 0 0 0 0 0 0 0 0 0 0 0 0 0 0 0 0 0 0 0 0 0 0 0 0 0 0 0 0 0 0 0 0 0 0
0 0 0 0 0 0 0 0 0 0 0 0 0 0 0 0 0 0 0 0 0 0 0 0 0 0 0 0 0 0 0 0 0 0 0 0 0 0 0 0 0 0 0 0 0 0 0 0 0 0 0 0 0 0 0 0 0 0 0 0 0 0 0 0 0 0 0 0 0 0 0 0 0 0 0 0 0 0 0 0 0 0 0 0 0
0 0 0 0 0 0 0 0 0 0 0 0 0 0 0 0 0 0 0 0 0 0 0 0 0 0 0 0 0 0 0 0 0 0 0 0 0 0 0 0 0 0 0 0 0 0 0 0 0 0 0 0 0 0 0 0 0 0 0 0 0 0 0 0 0 0 0 0 0 0 0 0 0 0 0 0 0 0 0 0 0 0 0 0 0
0 0 0 0 0 0 0 0 0 0 0 0 0 0 0 0 0 0 0 0 0 0 0 0 0 0 0 0 0 0 0 0 0 0 0 0 0 0 0 0 0 0 0 0 0 0 0 0 0 0 0 0 0 0 0 0 0 0 0 0 0 0 0 0 0 0 0 0 0 0 0 0 0 0 0 0 0 0 0 0 0 0 0 0 0
0 0 0 0 0 0 0 0 0 0 0 0 0 0 0 0 0 0 0 0 0 0 0 0 0 0 0 0 0 0 0 0 0 0 0 0 0 0 0 0 0 0 0 0 0 0 0 0 0 0 0 0 0 0 0 0 0 0 0 0 0 0 0 0 0 0 0 0 0 0 0 0 0 0 0 0 0 0 0 0 0 0 0 0 0
0 0 0 0 0 0 0 0 0 0 0 0 0 0 0 0 0 0 0 0 0 0 0 0 0 0 0 0 0 0 0 0 0 0 0 0 0 0 0 0 0 0 0 0 0 0 0 0 0 0 0 0 0 0 0 0 0 0 0 0 0 0 0 0 0 0 0 0 0 0 0 0 0 0 0 0 0 0 0 0 0 0 0 0 0
0 0 0 0 0 0 0 0 0 0 0 0 0 0 0 0 0 0 0 0 0 0 0 0 0 0 0 0 0 0 0 0 0 0 0 0 0 0 0 0 0 0 0 0 0 0 0 0 0 0 0 0 0 0 0 0 0 0 0 0 0 0 0 0 0 0 0 0 0 0 0 0 0 0 0 0 0 0 0 0 0 0 0 0 0
0 0 0 0 0 0 0 0 0 0 0 0 0 0 0 0 0 0 0 0 0 0 0 0 0 0 0 0 0 0 0 0 0 0 0 0 0 0 0 0 0 0 0 0 0 0 0 0 0 0 0 0 0 0 0 0 0 0 0 0 0 0 0 0 0 0 0 0 0 0 0 0 0 0 0 0 0 0 0 0 0 0 0 0 0
0 0 0 0 0 0 0 0 0 0 0 0 0 0 0 0 0 0 0 0 0 0 0 0 0 0 0 0 0 0 0 0 0 0 0 0 0 0 0 0 0 0 0 0 0 0 0 0 0 0 0 0 0 0 0 0 0 0 0 0 0 0 0 0 0 0 0 0 0 0 0 0 0 0 0 0 0 0 0 0 0 0 0 0 0
0 0 0 0 0 0 0 0 0 0 0 0 0 0 0 0 0 0 0 0 0 0 0 0 0 0 0 0 0 0 0 0 0 0 0 0 0 0 0 0 0 0 0 0 0 0 0 0 0 0 0 0 0 0 0 0 0 0 0 0 0 0 0 0 0 0 0 0 0 0 0 0 0 0 0 0 0 0 0 0 0 0 0 0 0
0 0 0 0 0 0 0 0 0 0 0 0 0 0 0 0 0 0 0 0 0 0 0 0 0 0 0 0 0 0 0 0 0 0 0 0 0 0 0 0 0 0 0 0 0 0 0 0 0 0 0 0 0 0 0 0 0 0 0 0 0 0 0 0 0 0 0 0 0 0 0 0 0 0 0 0 0 0 0 0 0 0 0 0 0
0 0 0 0 0 0 0 0 0 0 0 0 0 0 0 0 0 0 0 0 0 0 0 0 0 0 0 0 0 0 0 0 0 0 0 0 0 0 0 0 0 0 0 0 0 0 0 0 0 0 0 0 0 0 0 0 0 0 0 0 0 0 0 0 0 0 0 0 0 0 0 0 0 0 0 0 0 0 0 0 0 0 0 0 0
0 0 0 0 0 0 0 0 0 0 0 0 0 0 0 0 0 0 0 0 0 0 0 0 0 0 0 0 0 0 0 0 0 0 0 0 0 0 0 0 0 0 0 0 0 0 0 0 0 0 0 0 0 0 0 0 0 0 0 0 0 0 0 0 0 0 0 0 0 0 0 0 0 0 0 0 0 0 0 0 0 0 0 0 0
0 0 0 0 0 0 0 0 0 0 0 0 0 0 0 0 0 0 0 0 0 0 0 0 0 0 0 0 0 0 0 0 0 0 0 0 0 0 0 0 0 0 0 0 0 0 0 0 0 0 0 0 0 0 0 0 0 0 0 0 0 0 0 0 0 0 0 0 0 0 0 0 0 0 0 0 0 0 0 0 0 0 0 0 0
0 0 0 0 0 0 0 0 0 0 0 0 0 0 0 0 0 0 0 0 0 0 0 0 0 0 0 0 0 0 0 0 0 0 0 0 0 0 0 0 0 0 0 0 0 0 0 0 0 0 0 0 0 0 0 0 0 0 0 0 0 0 0 0 0 0 0 0 0 0 0 0 0 0 0 0 0 0 0 0 0 0 0 0 0
0 0 0 0 0 0 0 0 0 0 0 0 0 0 0 0 0 0 0 0 0 0 0 0 0 0 0 0 0 0 0 0 0 0 0 0 0 0 0 0 0 0 0 0 0 0 0 0 0 0 0 0 0 0 0 0 0 0 0 0 0 0 0 0 0 0 0 0 0 0 0 0 0 0 0 0 0 0 0 0 0 0 0 0 0
0 0 0 0 0 0 0 0 0 0 0 0 0 0 0 0 0 0 0 0 0 0 0 0 0 0 0 0 0 0 0 0 0 0 0 0 0 0 0 0 0 0 0 0 0 0 0 0 0 0 0 0 0 0 0 0 0 0 0 0 0 0 0 0 0 0 0 0 0 0 0 0 0 0 0 0 0 0 0 0 0 0 0 0 0
0 0 0 0 0 0 0 0 0 0 0 0 0 0 0 0 0 0 0 0 0 0 0 0 0 0 0 0 0 0 0 0 0 0 0 0 0 0 0 0 0 0 0 0 0 0 0 0 0 0 0 0 0 0 0 0 0 0 0 0 0 0 0 0 0 0 0 0 0 0 0 0 0 0 0 0 0 0 0 0 0 0 0 0 0
0 0 0 0 0 0 0 0 0 0 0 0 0 0 0 0 0 0 0 0 0 0 0 0 0 0 0 0 0 0 0 0 0 0 0 0 0 0 0 0 0 0 0 0 0 0 0 0 0 0 0 0 0 0 0 0 0 0 0 0 0 0 0 0 0 0 0 0 0 0 0 0 0 0 0 0 0 0 0 0 0 0 0 0 0
0 0 0 0 0 0 0 0 0 0 0 0 0 0 0 0 0 0 0 0 0 0 0 0 0 0 0 0 0 0 0 0 0 0 0 0 0 0 0 0 0 0 0 0 0 0 0 0 0 0 0 0 0 0 0 0 0 0 0 0 0 0 0 0 0 0 0 0 0 0 0 0 0 0 0 0 0 0 0 0 0 0 0 0 0
0 0 0 0 0 0 0 0 0 0 0 0 0 0 0 0 0 0 0 0 0 0 0 0 0 0 0 0 0 0 0 0 0 0 0 0 0 0 0 0 0 0 0 0 0 0 0 0 0 0 0 0 0 0 0 0 0 0 0 0 0 0 0 0 0 0 0 0 0 0 0 0 0 0 0 0 0 0 0 0 0 0 0 0 0
0 0 0 0 0 0 0 0 0 0 0 0 0 0 0 0 0 0 0 0 0 0 0 0 0 0 0 0 0 0 0 0 0 0 0 0 0 0 0 0 0 0 0 0 0 0 0 0 0 0 0 0 0 0 0 0 0 0 0 0 0 0 0 0 0 0 0 0 0 0 0 0 0 0 0 0 0 0 0 0 0 0 0 0 0
0 0 0 0 0 0 0 0 0 0 0 0 0 0 0 0 0 0 0 0 0 0 0 0 0 0 0 0 0 0 0 0 0 0 0 0 0 0 0 0 0 0 0 0 0 0 0 0 0 0 0 0 0 0 0 0 0 0 0 0 0 0 0 0 0 0 0 0 0 0 0 0 0 0 0 0 0 0 0 0 0 0 0 0 0
0 0 0 0 0 0 0 0 0 0 0 0 0 0 0 0 0 0 0 0 0 0 0 0 0 0 0 0 0 0 0 0 0 0 0 0 0 0 0 0 0 0 0 0 0 0 0 0 0 0 0 0 0 0 0 0 0 0 0 0 0 0 0 0 0 0 0 0 0 0 0 0 0 0 0 0 0 0 0 0 0 0 0 0 0
0 0 0 0 0 0 0 0 0 0 0 0 0 0 0 0 0 0 0 0 0 0 0 0 0 0 0 0 0 0 0 0 0 0 0 0 0 0 0 0 0 0 0 0 0 0 0 0 0 0 0 0 0 0 0 0 0 0 0 0 0 0 0 0 0 0 0 0 0 0 0 0 0 0 0 0 0 0 0 0 0 0 0 0 0
0 0 0 0 0 0 0 0 0 0 0 0 0 0 0 0 0 0 0 0 0 0 0 0 0 0 0 0 0 0 0 0 0 0 0 0 0 0 0 0 0 0 0 0 0 0 0 0 0 0 0 0 0 0 0 0 0 0 0 0 0 0 0 0 0 0 0 0 0 0 0 0 0 0 0 0 0 0 0 0 0 0 0 0 0
0 0 0 0 0 0 0 0 0 0 0 0 0 0 0 0 0 0 0 0 0 0 0 0 0 0 0 0 0 0 0 0 0 0 0 0 0 0 0 0 0 0 0 0 0 0 0 0 0 0 0 0 0 0 0 0 0 0 0 0 0 0 0 0 0 0 0 0 0 0 0 0 0 0 0 0 0 0 0 0 0 0 0 0 0
0 0 0 0 0 0 0 0 0 0 0 0 0 0 0 0 0 0 0 0 0 0 0 0 0 0 0 0 0 0 0 0 0 0 0 0 0 0 0 0 0 0 0 0 0 0 0 0 0 0 0 0 0 0 0 0 0 0 0 0 0 0 0 0 0 0 0 0 0 0 0 0 0 0 0 0 0 0 0 0 0 0 0 0 0
0 0 0 0 0 0 0 0 0 0 0 0 0 0 0 0 0 0 0 0 0 0 0 0 0 0 0 0 0 0 0 0 0 0 0 0 0 0 0 0 0 0 0 0 0 0 0 0 0 0 0 0 0 0 0 0 0 0 0 0 0 0 0 0 0 0 0 0 0 0 0 0 0 0 0 0 0 0 0 0 0 0 0 0 0
0 0 0 0 0 0 0 0 0 0 0 0 0 0 0 0 0 0 0 0 0 0 0 0 0 0 0 0 0 0 0 0 0 0 0 0 0 0 0 0 0 0 0 0 0 0 0 0 0 0 0 0 0 0 0 0 0 0 0 0 0 0 0 0 0 0 0 0 0 0 0 0 0 0 0 0 0 0 0 0 0 0 0 0 0
0 0 0 0 0 0 0 0 0 0 0 0 0 0 0 0 0 0 0 0 0 0 0 0 0 0 0 0 0 0 0 0 0 0 0 0 0 0 0 0 0 0 0 0 0 0 0 0 0 0 0 0 0 0 0 0 0 0 0 0 0 0 0 0 0 0 0 0 0 0 0 0 0 0 0 0 0 0 0 0 0 0 0 0 0
0 0 0 0 0 0 0 0 0 0 0 0 0 0 0 0 0 0 0 0 0 0 0 0 0 0 0 0 0 0 0 0 0 0 0 0 0 0 0 0 0 0 0 0 0 0 0 0 0 0 0 0 0 0 0 0 0 0 0 0 0 0 0 0 0 0 0 0 0 0 0 0 0 0 0 0 0 0 0 0 0 0 0 0 0
0 0 0 0 0 0 0 0 0 0 0 0 0 0 0 0 0 0 0 0 0 0 0 0 0 0 0 0 0 0 0 0 0 0 0 0 0 0 0 0 0 0 0 0 0 0 0 0 0 0 0 0 0 0 0 0 0 0 0 0 0 0 0 0 0 0 0 0 0 0 0 0 0 0 0 0 0 0 0 0 0 0 0 0 0
0 0 0 0 0 0 0 0 0 0 0 0 0 0 0 0 0 0 0 0 0 0 0 0 0 0 0 0 0 0 0 0 0 0 0 0 0 0 0 0 0 0 0 0 0 0 0 0 0 0 0 0 0 0 0 0 0 0 0 0 0 0 0 0 0 0 0 0 0 0 0 0 0 0 0 0 0 0 0 0 0 0 0 0 0
0 0 0 0 0 0 0 0 0 0 0 0 0 0 0 0 0 0 0 0 0 0 0 0 0 0 0 0 0 0 0 0 0 0 0 0 0 0 0 0 0 0 0 0 0 0 0 0 0 0 0 0 0 0 0 0 0 0 0 0 0 0 0 0 0 0 0 0 0 0 0 0 0 0 0 0 0 0 0 0 0 0 0 0 0
0 0 0 0 0 0 0 0 0 0 0 0 0 0 0 0 0 0 0 0 0 0 0 0 0 0 0 0 0 0 0 0 0 0 0 0 0 0 0 0 0 0 0 0 0 0 0 0 0 0 0 0 0 0 0 0 0 0 0 0 0 0 0 0 0 0 0 0 0 0 0 0 0 0 0 0 0 0 0 0 0 0 0 0 0
Wind_Speed
18 15 15 14 11 10 8 8 5 9 9 10 9 6 9 8 8 7 7 7 6 5 5 5 3 2 1 3 5 2 4 4 4 6 5 6 7 6 5 5 4 3 2 4 6 7 6 5 5 4 4 3 3 3 2 3 3 3 5 3 3 3 1 3 4 2 1 1 1 1 2 2 1 1 0 0 1 2 2 3 2 3 5 4 5
15 9 9 11 12 12 7 11 5 11 9 11 10 8 9 8 8 8 7 6 5 5 4 3 3 5 3 3 5 4 4 5 5 5 5 5 4 4 4 3 3 3 3 2 1 5 7 4 4 4 2 3 2 3 2 3 3 3 4 3 2 2 1 3 3 4 2 3 1 0 0 2 2 0 1 0 1 2 3 3 3 4 5 4 2
14 14 13 11 12 14 9 11 10 9 9 11 9 7 9 8 7 9 7 5 5 4 5 3 4 3 1 2 2 7 8 7 6 5 3 6 2 3 3 4 3 3 2 1 1 3 1 5 4 4 3 2 3 3 3 3 3 4 4 3 2 1 2 3 4 4 3 2 1 1 2 1 0 1 1 0 1 3 3 3 3 4 6 5 4
16 14 12 14 12 13 9 7 10 7 7 9 10 9 7 6 6 8 7 6 5 4 3 5 5 4 6 8 9 7 7 6 6 4 4 5 5 4 4 3 4 5 6 4 4 3 3 4 2 5 6 4 4 5 4 4 4 3 3 3 2 2 1 1 3 4 3 4 3 1 0 0 1 1 1 1 1 3 3 3 3 3 4 4 2
10 11 11 12 11 15 11 6 7 6 7 9 8 9 7 9 9 8 7 7 7 5 5 7 6 5 6 7 8 7 5 5 4 3 4 4 4 3 3 3 3 3 3 4 4 4 4 4 4 3 2 4 5 5 5 7 6 3 2 1 2 1 3 1 0 0 1 2 3 2 1 1 1 1 1 1 2 2 3 3 3 2 4 2 1
15 13 15 11 10 11 13 11 8 10 9 8 6 5 10 7 8 6 6 8 9 5 7 7 5 7 4 6 6 5 5 5 6 6 4 3 4 3 5 5 4 4 4 3 3 3 1 2 4 2 3 6 5 1 2 4 7 4 3 5 3 3 1 1 1 2 2 4 4 3 1 2 1 0 2 1 2 3 2 3 2 3 3 4 3
15 15 9 6 7 10 12 13 13 11 7 5 8 9 10 10 9 9 5 9 8 7 8 7 6 6 6 6 6 6 6 4 4 5 7 5 5 5 3 3 4 3 3 4 4 4 4 3 4 5 5 4 5 6 5 3 2 4 1 4 2 1 4 2 3 2 4 3 0 2 1 0 2 0 1 0 2 1 2 3 3 3 4 4 5
13 12 11 10 10 12 12 13 13 15 11 15 10 8 12 9 11 9 5 8 8 8 8 7 6 6 6 5 6 5 6 7 6 6 5 6 6 5 5 4 4 3 3 3 3 4 4 5 4 2 1 3 4 5 4 5 5 4 4 4 3 3 2 4 4 5 4 1 0 1 0 4 1 1 0 1 2 1 1 2 3 4 3 4 4
11 10 19 17 19 16 12 11 10 7 7 10 10 10 10 10 8 9 6 9 9 9 8 7 6 8 6 6 5 7 8 7 7 6 6 5 6 5 4 4 4 4 4 4 4 3 4 5 5 7 7 5 6 5 5 6 5 4 4 4 4 6 5 4 3 3 3 3 2 1 2 1 2 0 0 0 1 1 2 0 2 3 5 5 5
5 2 3 11 12 14 12 12 12 13 4 3 6 10 12 11 9 12 8 10 10 9 9 8 8 8 6 5 6 8 7 7 6 7 6 5 5 5 5 6 5 4 3 4 4 4 4 4 4 4 5 6 6 5 5 4 4 5 4 4 4 5 4 5 5 5 5 4 3 2 1 1 1 0 1 1 2 2 2 3 2 2 4 2 4
6 3 4 9 11 11 10 11 12 9 9 7 5 3 10 10 13 14 9 11 11 11 10 8 8 8 6 5 8 9 8 7 8 7 6 4 6 5 6 6 5 6 4 4 5 4 5 3 4 4 5 6 5 5 4 4 3 3 4 5 5 5 4 5 6 5 5 6 5 5 4 3 3 2 2 2 2 2 2 4 4 4 4 5 3
6 5 7 10 9 2 9 8 11 11 15 15 13 1 4 11 11 13 10 12 12 12 10 10 8 8 5 6 9 9 8 8 9 8 7 6 6 6 6 6 6 5 4 4 4 4 3 3 3 4 3 3 3 3 3 4 4 4 3 3 4 4 5 6 5 6 5 5 4 5 5 5 6 5 5 4 4 4 3 3 4 3 3 4 5
2 6 7 7 5 3 3 11 11 14 14 19 19 17 15 14 17 15 13 13 13 12 11 9 8 8 7 7 7 9 8 9 9 8 7 7 7 6 7 7 7 5 5 5 4 4 3 3 4 4 4 3 4 4 4 4 4 4 4 5 5 5 5 5 5 5 5 4 4 4 5 6 4 3 3 3 2 3 3 3 3 5 3 4 5
5 7 6 4 4 6 4 6 13 12 12 14 14 18 16 15 18 18 14 15 12 11 10 9 8 8 7 6 7 9 8 8 8 8 7 7 7 7 7 8 7 7 6 5 4 4 3 3 4 4 3 3 2 3 1 2 4 4 3 4 3 3 4 4 4 4 4 4 3 3 4 5 4 4 4 4 3 2 3 4 5 4 3 5 4
6 6 5 3 4 5 6 6 10 11 11 7 9 8 5 9 4 12 13 15 13 11 9 9 8 7 7 7 6 7 8 8 8 8 7 7 7 7 6 8 7 7 7 7 5 4 4 4 4 4 4 4 3 3 2 1 4 4 3 3 3 3 5 4 4 4 4 4 3 1 3 3 3 4 3 5 5 5 4 3 3 6 5 4 5
6 6 6 5 2 3 5 4 6 9 10 9 9 9 8 6 7 8 10 13 12 10 10 7 6 6 6 7 7 7 6 7 7 7 7 6 7 7 5 7 7 7 7 7 5 5 5 5 5 4 4 4 3 3 3 3 2 4 3 3 3 2 3 5 4 3 3 4 2 0 3 3 3 1 1 2 3 3 3 3 3 3 5 6 6
7 7 7 7 6 3 4 3 6 9 8 8 11 11 13 13 12 7 8 9 10 9 9 6 5 5 5 6 6 7 6 6 6 8 8 6 7 7 5 6 6 7 7 7 5 5 5 5 4 5 4 3 3 2 3 3 3 3 3 3 3 2 2 3 4 3 3 3 1 1 0 3 3 0 2 2 2 2 2 2 2 1 2 3 4
9 9 8 7 8 9 4 4 5 7 8 5 7 9 10 8 14 17 11 10 10 10 10 7 6 4 4 4 5 5 6 6 4 7 7 5 5 6 4 5 5 6 7 6 5 5 5 4 4 4 4 3 3 3 3 4 3 4 3 3 3 3 3 2 2 3 3 2 1 3 3 3 2 1 2 1 0 1 2 3 3 2 1 2 2
8 8 8 7 6 6 8 4 5 4 6 7 3 6 5 6 5 11 9 8 8 7 6 5 5 3 3 3 4 4 4 4 4 5 7 6 4 6 4 5 4 6 7 6 5 5 4 3 4 4 3 3 3 3 3 4 3 4 3 3 3 3 4 3 3 3 2 3 2 0 1 1 1 0 0 2 2 2 1 3 3 4 3 1 1
8 9 9 8 7 8 8 7 5 4 4 8 3 2 1 1 2 4 4 6 6 5 5 6 4 3 4 4 3 3 3 4 3 4 4 7 3 2 4 6 5 6 7 6 5 5 5 4 4 4 4 4 4 3 3 3 2 4 3 4 3 3 3 4 4 3 2 3 2 1 0 2 1 2 3 3 2 2 1 2 3 3 3 2 1
8 9 9 9 8 6 7 6 8 10 8 5 3 2 2 7 8 8 9 7 6 8 7 4 1 2 4 3 3 4 5 5 6 7 5 4 2 1 1 3 5 6 8 7 6 6 5 5 5 6 6 5 5 4 4 4 3 3 3 3 4 3 3 4 4 3 2 2 3 3 5 2 0 2 3 2 3 2 3 3 3 2 2 2 2
8 10 10 10 9 9 8 7 6 7 8 8 6 3 4 4 5 8 9 6 6 6 3 3 2 1 2 3 4 5 3 4 6 6 4 3 2 2 2 2 1 4 5 7 6 5 6 6 5 5 5 6 5 4 4 4 4 4 4 2 4 3 3 4 4 4 4 2 2 2 2 5 3 1 1 4 2 1 1 3 3 3 1 1 0
9 8 10 9 9 9 10 9 9 6 6 8 6 6 8 7 5 7 10 7 5 8 5 4 3 5 6 5 4 5 3 3 6 7 5 3 2 2 2 2 2 1 5 6 5 5 6 7 5 5 5 5 5 5 5 4 5 5 5 3 4 4 4 3 4 3 4 5 3 3 2 3 2 2 2 3 2 3 2 3 3 2 2 2 3
9 9 8 9 10 10 10 10 9 8 7 7 6 8 7 5 6 7 7 8 6 6 6 4 3 2 2 2 4 5 5 4 5 3 4 4 3 3 2 3 1 4 6 5 3 4 4 5 5 5 6 6 6 5 5 6 6 5 5 5 4 4 4 3 4 4 4 6 5 4 3 3 4 3 3 2 2 2 3 2 2 3 2 3 3
10 10 10 10 10 11 11 10 10 10 8 5 7 6 5 7 8 7 5 6 4 3 5 8 6 3 4 3 4 4 5 5 5 3 4 4 4 3 5 7 7 7 7 10 12 11 9 4 6 6 6 6 7 6 6 5 4 4 5 5 5 5 4 4 4 4 4 4 4 3 2 3 4 3 2 3 2 2 3 3 3 3 3 3 4
9 8 8 8 9 11 11 9 11 10 10 9 7 7 7 7 7 6 9 8 7 5 6 5 4 4 5 6 5 6 4 2 4 7 6 5 5 4 4 2 6 6 4 0 2 4 4 7 10 7 6 6 7 7 7 7 6 4 4 4 5 4 4 4 4 3 3 2 1 2 3 1 1 3 3 0 2 2 2 3 3 4 4 4 4
9 7 8 7 8 9 9 8 9 9 9 9 9 10 8 6 7 8 8 7 6 6 6 6 6 5 5 7 8 7 4 3 2 2 2 3 5 6 4 2 2 2 2 4 6 7 6 6 11 16 12 9 8 6 7 7 7 6 6 5 4 4 4 4 3 4 2 4 4 2 1 2 1 0 0 1 0 2 1 3 3 4 4 4 5
8 7 9 10 10 9 8 8 8 9 9 9 9 9 9 6 8 7 6 4 5 6 5 6 6 5 4 5 4 5 4 3 2 2 4 5 5 7 8 8 8 8 8 9 8 11 11 8 12 16 12 8 8 8 7 7 8 7 6 6 5 5 5 4 4 4 3 3 3 2 1 2 2 1 3 5 5 3 3 3 4 4 4 4 4
9 8 8 8 9 9 9 9 9 10 9 9 8 8 6 6 7 6 4 4 4 4 5 6 5 5 4 2 2 3 4 2 2 1 2 3 5 4 3 4 7 9 9 11 11 11 8 9 12 13 11 7 8 9 8 7 8 8 7 5 5 6 5 4 4 3 3 2 2 1 2 1 6 7 8 7 6 4 1 2 3 3 4 4 4
9 9 7 6 8 8 9 9 9 10 11 10 8 8 8 6 6 6 5 4 3 4 4 5 5 4 4 4 2 3 3 3 4 3 1 1 1 2 3 6 8 9 9 9 9 8 6 9 12 13 7 5 5 4 8 14 11 8 8 7 6 7 6 5 5 4 3 4 2 3 3 11 10 9 8 7 8 6 3 1 1 1 2 3 3
8 11 9 8 6 7 8 8 9 9 8 8 6 8 8 6 5 5 4 4 5 3 3 3 4 3 2 2 2 3 1 1 3 1 1 0 1 2 3 4 4 5 7 9 8 9 10 10 12 9 9 7 7 5 4 8 16 15 8 6 6 4 3 3 4 4 5 4 4 4 5 7 7 6 4 7 6 7 7 7 7 6 5 2 1
8 6 11 10 9 7 8 8 9 9 8 7 5 7 6 6 4 4 4 4 4 3 3 2 2 2 2 2 2 1 1 3 2 3 4 5 4 3 3 2 3 2 1 1 2 4 6 9 9 11 8 5 4 6 13 11 11 13 11 6 5 3 2 1 3 2 3 5 5 5 4 5 4 5 3 4 7 10 10 10 10 10 10 9 8
10 9 9 11 9 7 5 5 8 8 8 8 6 5 6 6 4 2 5 4 5 3 3 2 2 2 2 3 1 1 2 3 4 3 3 3 3 2 2 2 2 2 3 4 4 4 4 3 4 4 4 5 2 2 11 13 13 13 13 10 6 4 6 3 3 4 2 2 3 2 1 5 6 11 7 4 6 7 10 13 12 9 9 10 11
6 4 8 6 7 7 2 2 4 5 7 5 3 6 5 1 3 5 3 5 7 6 5 5 3 3 2 1 1 2 3 3 3 3 2 2 2 2 2 2 1 2 2 2 3 2 2 3 3 2 2 3 2 5 10 14 14 15 15 11 6 3 4 4 3 3 3 2 2 4 6 4 3 6 5 4 4 6 7 7 5 4 5 9 12
10 4 5 9 9 9 7 2 4 6 3 1 4 4 3 6 3 3 3 1 2 5 5 4 3 3 2 2 2 3 3 3 2 2 1 1 2 3 3 3 1 1 2 3 3 3 3 1 2 5 5 4 4 4 7 12 13 14 13 9 5 2 4 4 3 3 3 3 7 7 4 2 1 1 2 2 3 1 0 1 2 3 4 4 3
8 11 6 8 6 7 5 5 5 0 4 5 4 4 2 2 3 1 2 2 2 1 2 3 2 2 1 2 3 3 2 1 0 0 1 2 2 2 3 3 2 1 2 3 3 3 4 3 1 6 6 6 4 7 8 10 12 13 11 5 3 1 3 4 1 2 3 4 1 2 4 3 3 4 4 7 4 2 1 0 2 3 4 4 4
8 9 7 8 4 3 5 5 3 6 5 3 4 2 0 1 2 4 5 4 2 2 1 2 2 3 2 2 2 1 2 1 1 1 1 1 2 3 3 3 3 2 3 2 3 1 0 2 3 7 6 5 4 3 7 11 12 12 7 3 3 3 2 2 3 3 5 4 2 4 4 4 4 1 7 8 6 5 1 2 3 4 5 4 6
5 4 3 2 4 0 3 1 4 4 1 4 3 2 3 2 3 4 4 3 5 5 4 2 1 0 1 2 2 2 2 2 1 2 2 1 1 3 4 3 4 3 3 2 1 1 2 7 7 5 5 6 5 3 6 9 12 11 6 5 4 4 3 3 2 2 1 3 3 11 8 4 4 2 7 6 2 1 3 3 3 4 5 5 5
4 3 2 7 1 3 3 4 8 9 5 3 3 4 4 3 3 4 4 4 3 2 2 2 2 1 1 1 1 1 1 1 2 2 2 2 2 2 3 3 4 3 2 2 1 1 7 6 6 6 8 8 6 3 4 8 9 9 7 4 3 2 3 3 3 3 6 6 9 10 1 9 9 10 12 11 10 6 4 4 3 3 5 5 5
11 5 3 6 3 2 2 3 6 8 7 4 4 4 3 3 4 3 4 4 4 3 4 3 2 3 3 2 2 3 4 4 3 3 1 2 1 2 3 4 4 3 2 3 3 6 7 6 5 5 4 5 7 4 5 8 8 10 10 5 3 4 2 3 4 2 4 2 0 8 9 11 13 12 10 10 9 8 4 3 3 4 5 7 4
11 9 9 7 8 9 7 7 6 5 5 5 6 4 4 5 4 4 5 4 4 4 4 4 3 3 4 4 4 3 2 2 2 3 2 1 1 3 3 4 4 3 2 5 7 6 7 6 5 5 6 5 5 6 6 8 6 8 9 6 4 5 4 4 5 5 5 4 3 6 5 7 10 9 8 7 5 4 1 2 2 4 5 6 8
11 11 9 8 8 5 8 10 9 7 7 6 6 6 6 6 6 6 5 5 5 5 3 3 5 5 4 4 4 4 3 2 1 1 2 2 2 3 3 4 3 4 3 7 5 5 7 6 6 5 5 6 5 7 6 6 7 6 6 6 3 3 3 4 5 4 4 3 3 7 4 6 8 7 5 3 1 3 5 4 4 8 10 10 7
12 13 12 11 9 10 11 10 8 9 7 6 5 6 7 7 8 6 5 6 6 6 7 7 6 6 4 3 3 4 3 2 3 3 3 3 2 3 4 4 1 4 7 7 6 6 6 6 6 5 5 5 5 5 8 5 5 5 4 4 2 1 5 4 4 4 4 4 5 5 6 5 6 6 4 4 5 7 5 6 10 9 8 10 9
14 15 14 11 14 13 12 11 10 8 8 9 9 9 7 6 8 7 6 6 7 7 6 7 5 6 6 6 6 6 5 3 4 4 4 4 4 3 3 1 2 4 6 7 5 6 6 6 6 6 5 5 5 5 5 6 5 5 5 5 5 7 8 3 1 2 3 4 3 3 2 3 2 4 6 8 8 7 6 9 11 12 13 11 6
14 14 12 11 14 13 11 12 10 11 10 8 7 8 8 9 8 7 8 8 7 6 7 7 7 7 6 6 6 6 6 5 4 4 4 5 4 4 1 4 2 4 3 6 6 5 6 6 6 6 6 5 5 5 4 5 8 8 8 9 10 10 10 7 3 3 1 3 6 8 10 9 7 8 10 10 8 10 14 13 13 13 11 5 6
17 15 15 15 15 14 15 14 13 12 11 8 9 10 12 11 10 10 10 10 10 10 9 7 8 7 8 9 8 6 5 5 5 5 6 4 3 1 5 3 4 3 2 3 5 5 5 6 6 7 6 6 6 5 4 4 3 4 5 8 8 7 7 7 5 6 10 13 11 9 9 10 11 10 7 6 7 7 6 7 9 10 6 6 6
19 18 15 14 13 14 15 13 11 9 9 10 11 11 11 9 8 9 9 9 9 9 8 6 6 7 7 6 6 6 6 6 6 6 6 4 3 3 4 4 4 5 5 4 5 5 6 6 7 7 7 7 6 5 5 4 4 3 4 4 4 4 5 4 3 2 4 4 5 5 7 10 10 12 10 9 9 8 6 7 5 4 3 4 4
18 17 14 13 14 15 13 12 11 9 8 8 9 11 12 12 11 11 11 12 11 12 12 10 10 9 8 8 10 11 10 6 4 6 6 1 5 3 5 5 4 6 7 6 6 6 6 7 8 8 8 8 6 5 4 5 4 2 1 1 2 1 2 2 3 3 3 4 5 6 8 8 7 3 2 0 0 1 3 4 5 5 5 4 6
18 16 16 15 13 13 15 16 14 12 11 10 11 11 13 13 12 12 11 10 9 7 7 8 9 9 8 5 6 5 4 3 1 8 9 8 4 2 4 6 5 2 3 6 6 5 4 5 6 7 8 6 6 5 3 3 5 5 3 4 4 4 3 3 3 4 5 5 5 5 6 4 4 5 6 5 4 3 3 4 5 6 5 6 6
17 15 17 17 13 14 14 15 14 12 12 13 14 14 12 13 12 11 11 11 10 8 8 8 8 8 7 7 7 7 6 5 1 9 8 7 12 15 8 7 4 7 11 9 7 5 6 7 7 5 3 6 7 5 7 8 10 10 9 8 5 3 1 3 5 8 5 4 5 6 3 4 4 5 5 4 4 3 4 5 5 5 5 6 6
15 14 14 15 15 13 13 14 14 13 14 13 13 14 13 13 13 12 11 10 9 8 8 8 6 7 6 5 5 5 5 2 7 8 7 6 7 9 16 14 11 11 14 16 16 15 14 12 11 7 9 16 14 11 9 9 9 8 7 5 2 2 4 4 5 5 3 3 6 3 5 5 4 3 4 5 4 5 4 5 5 5 6 7 7
Wind_Direction
203 203 171 172 161 159 160 175 178 151 154 143 152 149 138 144 138 136 133 132 140 154 171 164 166 126 122 95 97 151 87 97 70 41 55 56 22 36 31 50 46 59 109 143 152 153 162 188 156 156 189 173 161 152 151 133 119 107 119 146 153 162 167 142 164 156 172 211 79 77 135 99 63 329 234 124 340 317 306 317 300 309 321 314 330
186 148 194 164 172 164 167 169 192 160 161 149 160 157 147 147 140 134 137 149 154 166 164 117 160 135 190 127 140 134 146 135 100 90 75 46 48 42 31 17 49 68 59 39 356 143 160 156 171 151 178 153 152 158 145 109 136 148 150 152 196 157 143 187 174 135 180 184 149 103 278 138 126 87 311 283 323 307 317 302 319 328 313 313 307
186 159 191 175 176 170 168 175 184 165 160 155 155 168 155 151 147 136 139 153 156 145 121 114 87 117 138 58 76 80 60 58 79 83 98 114 111 94 42 34 39 92 102 17 321 33 90 167 156 159 151 151 144 140 142 143 189 172 164 148 148 172 185 190 182 191 152 122 127 131 194 150 200 165 281 253 259 316 297 308 331 322 328 326 336
163 186 181 165 189 167 160 171 174 155 167 157 159 173 161 142 141 137 146 148 139 109 123 104 101 74 65 67 60 78 83 77 76 72 65 70 66 54 54 53 48 27 15 49 49 20 10 5 107 139 150 179 160 145 164 175 196 178 169 200 172 154 173 179 207 197 189 160 196 214 135 220 192 182 188 270 229 262 277 280 314 305 304 305 19
175 179 184 184 174 167 171 160 181 180 176 174 170 176 159 147 145 150 158 143 129 158 124 108 98 79 83 78 84 90 101 115 129 99 100 115 109 100 110 98 83 60 57 56 52 31 10 13 27 41 83 159 162 164 169 179 170 168 163 53 246 224 154 177 87 226 237 251 59 107 13 324 270 135 166 241 225 244 248 248 245 275 287 318 273
175 183 184 183 150 167 168 180 195 193 182 178 164 198 152 157 143 157 158 140 145 159 126 116 124 122 118 116 123 132 142 153 125 144 162 109 98 92 70 61 56 69 74 77 97 104 82 18 338 88 42 32 10 77 109 117 138 163 169 161 145 223 159 130 27 358 12 39 52 301 92 168 169 271 233 200 258 259 294 274 276 284 307 315 311
174 185 162 188 182 175 184 186 192 204 184 136 186 187 157 146 150 167 170 145 145 139 135 139 140 137 152 152 163 157 156 123 111 104 103 102 96 89 90 85 94 86 82 74 62 54 45 42 65 57 41 42 35 37 31 18 44 88 107 130 151 94 101 117 128 70 352 10 62 269 167 154 354 65 245 11 244 233 261 291 289 282 303 307 299
178 169 168 176 207 203 184 183 193 198 187 163 204 165 164 156 157 170 173 146 144 144 144 152 142 146 163 162 166 151 122 124 125 113 107 112 118 114 112 121 106 97 93 97 83 57 45 38 27 32 132 114 81 48 46 33 51 63 43 19 71 75 87 124 138 152 158 226 107 253 175 57 230 325 280 238 261 269 187 225 251 264 266 262 264
196 170 170 194 193 200 198 182 182 203 174 168 182 174 157 156 161 166 178 146 146 150 150 157 147 152 172 163 156 118 125 127 122 124 126 128 130 142 122 92 72 65 75 69 68 79 66 44 31 32 24 40 67 62 53 51 47 46 43 37 53 47 37 49 100 126 149 178 194 216 112 119 98 242 258 12 274 322 280 254 237 205 221 239 244
37 17 116 180 179 185 186 185 191 201 119 81 203 184 163 156 169 176 189 150 149 153 156 164 152 159 172 170 140 130 135 139 129 125 125 144 128 110 102 98 104 109 76 77 86 81 72 61 54 45 60 69 76 80 68 57 50 45 46 45 53 62 46 49 51 53 59 40 47 49 91 110 88 201 180 190 235 186 223 286 306 313 297 245 210
253 252 209 193 197 185 167 172 175 166 128 137 301 255 148 162 169 180 183 151 153 157 161 168 152 167 172 167 141 138 143 133 129 132 140 141 127 136 134 136 123 106 114 91 84 71 65 70 69 62 42 40 53 64 77 97 101 94 72 58 56 63 55 52 44 38 60 51 30 42 57 66 52 48 32 359 349 357 3 338 342 317 290 299 226
345 328 4 26 13 153 182 189 180 178 150 161 167 83 185 176 178 179 177 153 157 159 164 164 156 168 178 164 146 146 145 137 139 147 154 145 144 149 134 127 123 125 112 117 113 117 105 100 90 72 61 68 73 91 106 86 72 70 75 79 69 58 67 60 50 48 42 45 38 26 36 44 41 29 7 10 20 2 359 315 294 302 320 329 334
331 48 28 8 8 327 254 194 182 183 175 174 171 165 189 189 182 180 172 155 161 164 163 165 159 168 173 163 146 149 145 142 148 146 158 146 152 146 141 136 140 143 147 132 128 123 134 123 110 89 71 64 68 69 52 64 74 80 72 65 71 82 82 77 70 55 48 42 38 34 43 46 45 18 10 341 358 354 325 312 327 349 330 309 289
45 48 31 15 342 317 264 211 187 180 176 181 168 162 184 185 178 174 161 157 160 159 160 167 162 167 165 162 151 144 150 144 148 148 152 148 159 149 155 148 152 156 151 145 148 132 137 120 106 120 114 97 91 70 94 132 133 104 97 94 90 87 88 91 95 93 79 61 41 43 45 49 17 16 360 338 355 3 3 2 341 328 312 293 291
64 58 53 36 345 328 334 326 164 167 170 126 79 127 67 358 252 175 158 155 156 154 155 168 166 167 161 156 149 150 146 145 147 148 156 152 163 150 162 149 154 153 152 143 156 151 132 120 117 119 133 126 126 128 102 54 66 85 78 86 82 72 80 77 85 97 97 87 67 20 92 69 36 27 350 19 4 21 5 359 336 326 322 315 330
78 64 58 50 33 341 328 347 87 150 122 120 138 132 123 142 288 286 160 152 151 159 150 167 172 161 158 154 154 150 150 145 146 145 157 156 161 157 170 153 152 151 141 144 156 152 141 132 132 134 126 137 135 150 156 105 111 112 117 119 100 116 131 128 119 102 101 99 92 325 83 107 91 42 10 46 31 348 330 338 337 347 345 337 333
72 69 50 27 37 28 358 17 80 110 123 137 143 152 163 166 194 236 230 149 149 147 138 174 172 160 160 150 153 149 156 154 155 149 156 157 156 156 170 157 148 142 139 143 153 143 144 143 150 141 149 153 160 160 130 132 146 134 135 136 145 145 91 83 97 95 84 96 91 86 168 120 87 358 45 53 6 348 326 300 289 328 347 319 333
94 83 67 55 31 21 22 31 48 105 123 146 148 158 150 171 167 185 198 151 145 148 154 158 162 160 153 150 155 147 152 151 161 149 151 152 143 151 151 152 143 141 137 140 147 138 141 150 143 145 155 159 171 170 147 161 161 127 154 147 127 125 112 132 105 104 104 90 44 37 349 71 79 355 84 317 324 290 279 287 304 317 339 34 352
101 91 88 70 57 49 16 24 75 69 135 139 124 126 143 182 186 163 153 133 130 136 141 141 142 140 135 147 149 147 134 139 154 139 144 153 153 151 155 151 134 129 131 135 141 141 141 154 149 154 159 173 178 176 161 167 183 131 168 130 127 151 154 147 117 111 120 120 113 108 323 87 113 103 220 209 213 227 310 330 343 338 340 20 345
106 104 94 88 76 63 41 9 76 91 88 70 15 338 123 179 120 149 143 128 128 128 128 141 141 132 150 159 149 119 103 83 66 62 118 146 133 115 146 158 145 125 136 136 145 149 156 165 168 163 172 177 185 176 177 183 189 146 167 141 171 186 147 147 133 163 157 136 137 183 116 26 51 300 251 198 187 190 224 286 324 307 311 308 325
115 112 109 106 103 87 70 50 45 35 50 76 78 96 127 215 175 131 108 96 87 78 67 41 40 81 100 101 101 113 90 81 64 68 50 34 77 201 243 146 138 144 143 145 161 160 166 179 179 180 179 184 187 174 191 176 190 153 198 168 156 203 174 156 156 176 145 158 189 184 162 165 121 281 298 309 249 211 190 200 229 249 271 269 250
121 124 122 122 115 114 111 97 63 50 49 50 55 42 163 113 97 114 114 116 118 92 97 118 136 154 280 134 142 92 99 120 110 99 105 99 36 351 307 113 108 142 133 150 171 162 169 182 192 193 192 187 190 179 187 178 194 169 204 171 153 197 208 159 146 174 158 182 96 291 198 157 175 312 347 300 307 311 294 232 185 190 223 278 278
121 117 119 115 112 108 106 94 96 82 59 53 38 58 43 42 109 140 125 131 159 140 167 170 156 154 201 173 129 128 167 156 150 136 137 119 101 11 54 87 353 333 158 163 177 167 178 187 194 198 193 194 195 188 188 182 201 177 192 167 171 194 205 162 151 193 180 162 170 206 235 143 132 213 236 277 283 269 301 326 0 3 316 285 285
120 117 116 118 120 119 115 113 102 93 78 65 64 42 30 49 71 85 111 149 150 141 166 169 153 166 179 141 148 164 174 145 119 127 135 131 124 108 63 123 173 44 10 342 212 184 195 181 204 206 203 192 194 195 190 196 203 188 187 172 184 199 201 181 166 190 207 151 184 188 199 159 161 193 234 250 262 238 230 265 339 316 311 285 252
135 138 136 132 127 121 117 112 110 108 107 103 80 63 66 53 40 42 65 94 102 121 160 169 152 127 131 139 101 83 81 90 95 86 86 74 51 61 63 32 18 39 23 10 357 344 331 293 215 217 214 199 194 196 196 199 211 198 186 181 186 199 195 193 186 191 192 159 160 172 201 174 167 202 193 218 243 24 355 353 325 323 300 335 354
129 121 125 127 125 120 122 122 118 116 117 111 102 100 87 73 59 56 55 43 49 64 57 56 92 110 108 99 94 85 85 71 113 127 129 120 104 70 54 78 77 30 28 161 233 275 294 321 314 281 240 227 207 195 194 190 203 207 194 192 188 192 187 195 195 197 169 134 159 184 188 161 149 177 222 357 26 343 10 338 338 343 334 321 313
137 124 112 105 102 103 101 97 104 114 112 103 104 104 99 98 97 87 68 59 49 45 58 79 71 67 60 66 66 66 86 99 97 77 62 111 115 111 110 90 70 59 311 293 278 288 264 244 260 270 251 224 221 206 196 185 191 202 196 200 189 182 178 191 198 184 187 161 173 194 196 153 158 161 197 191 69 33 26 1 349 348 332 347 340
130 134 136 128 119 113 113 115 115 111 101 100 104 101 104 99 98 89 83 81 86 98 90 72 68 59 53 62 83 95 71 103 134 179 170 165 151 158 163 156 159 174 198 221 221 224 245 236 230 237 240 222 210 209 203 180 186 198 191 201 178 192 187 176 189 182 189 169 157 170 163 168 171 70 68 60 64 46 19 357 345 342 334 330 326
177 158 137 129 129 128 126 117 105 102 102 103 98 91 80 80 80 85 96 102 109 121 120 112 108 107 104 112 92 80 117 115 88 147 220 143 155 181 180 181 172 182 190 204 207 219 228 253 258 256 243 231 223 213 205 192 187 194 179 181 176 198 195 175 171 176 169 155 156 164 172 105 96 104 99 100 105 103 53 336 330 353 343 341 337
178 152 148 144 137 135 130 132 136 131 131 128 127 126 120 111 104 103 102 83 59 56 82 87 88 94 120 126 147 169 143 163 160 174 149 127 131 161 173 165 181 200 210 203 200 193 201 248 265 258 252 257 251 225 198 195 186 184 176 180 187 202 189 179 163 171 173 161 190 169 124 124 133 130 134 126 118 124 148 184 258 302 319 329 340
215 164 166 153 157 142 135 128 118 122 120 117 105 107 107 100 101 97 89 103 97 84 80 108 130 123 140 134 109 88 40 114 81 91 115 240 170 166 201 202 207 213 212 210 201 184 200 223 246 266 258 223 225 229 229 215 196 180 169 170 192 192 183 173 153 164 165 179 183 191 152 157 143 147 147 153 159 170 188 214 229 232 233 227 282
262 217 150 149 164 157 150 137 132 133 132 132 148 155 140 135 143 140 134 108 73 76 103 84 94 142 76 70 67 121 91 77 72 37 28 23 6 1 335 285 239 240 286 262 231 229 210 202 207 220 218 213 206 217 223 216 189 174 168 150 140 122 118 105 156 172 160 189 195 204 169 174 169 166 181 177 199 204 204 214 222 230 242 248 232
257 255 165 158 171 155 110 120 144 142 140 145 149 125 122 127 134 160 139 125 145 155 139 102 39 32 68 83 90 283 86 83 66 52 49 18 339 316 311 309 289 199 216 250 271 288 303 271 211 196 204 204 134 214 210 186 159 142 134 123 124 137 136 168 189 193 168 63 28 355 142 168 201 188 194 190 186 213 221 221 225 233 243 242 246
317 278 148 153 117 113 131 80 73 85 77 81 80 94 109 105 161 162 154 174 165 166 155 153 161 151 153 202 216 67 68 65 46 43 34 354 316 304 323 315 278 288 290 249 190 219 287 301 294 154 100 70 98 166 158 138 127 121 121 125 132 137 155 170 164 105 92 113 128 248 254 209 159 161 188 202 222 211 202 219 227 235 242 251 251
8 359 79 83 84 79 83 141 112 83 89 159 148 147 161 178 188 165 166 200 222 174 149 152 165 142 168 165 136 77 62 47 31 20 16 289 319 303 280 238 230 264 254 244 211 191 212 259 334 85 89 90 66 103 137 122 110 106 104 98 90 79 129 125 123 131 161 187 217 221 236 271 290 215 197 176 206 194 79 150 182 205 220 241 245
102 84 74 89 92 108 90 61 54 227 204 200 143 114 173 239 154 157 146 205 228 128 199 155 150 148 209 123 124 121 93 97 97 34 307 292 269 297 287 280 243 208 238 270 275 190 185 185 177 115 112 110 64 48 76 81 78 79 80 86 85 93 127 110 109 162 199 227 237 245 233 229 236 248 143 148 162 222 230 242 270 268 272 266 259
12 21 69 59 46 84 109 66 9 352 2 4 25 58 4 274 230 221 209 207 177 237 254 127 175 208 181 131 119 144 154 145 190 210 256 280 320 301 315 301 270 228 220 233 249 315 124 182 149 112 121 110 108 65 85 87 77 71 71 45 45 61 34 118 177 197 223 184 200 256 246 225 228 194 149 141 143 134 186 231 265 277 274 270 265
57 82 28 219 198 299 325 199 165 173 349 327 297 226 234 254 261 269 250 232 222 216 212 191 200 241 191 176 172 174 190 174 165 234 231 238 262 260 259 261 260 235 239 237 178 292 44 55 77 106 111 118 118 86 95 93 96 94 72 44 26 41 24 351 296 258 158 117 271 266 236 221 223 132 139 96 65 54 226 242 259 264 269 269 273
172 244 254 253 310 360 296 321 5 344 326 289 307 327 311 279 269 266 269 270 281 302 319 305 293 306 319 298 256 228 205 190 226 237 215 230 239 269 276 274 272 268 236 240 235 198 90 86 80 93 108 116 122 108 97 97 99 92 76 49 30 39 40 328 318 281 250 191 209 245 311 58 68 83 78 67 44 22 353 337 319 305 286 280 283
322 294 275 329 3 84 33 344 276 249 239 239 250 258 264 278 283 300 310 305 300 294 280 299 319 289 261 261 230 210 208 212 219 211 201 247 263 269 280 285 288 280 263 216 203 107 103 95 103 98 98 114 125 130 91 84 98 93 74 54 9 11 9 317 288 286 297 299 55 83 80 86 82 80 79 73 62 50 25 348 339 317 302 291 338
310 319 350 330 345 348 333 301 296 315 330 321 304 287 270 267 263 261 262 268 277 283 291 284 287 301 299 282 270 258 250 228 205 209 194 204 245 283 273 270 274 262 278 64 81 100 96 105 111 120 110 117 129 119 107 118 117 98 84 80 44 28 13 344 330 353 336 326 36 92 71 96 86 76 87 82 59 52 28 327 298 274 269 302 328
305 322 324 320 298 277 259 257 258 262 265 269 274 276 273 259 253 254 255 257 257 261 272 287 282 273 276 287 293 291 283 261 254 258 232 238 254 257 272 284 268 272 105 106 100 100 103 93 76 87 111 113 115 121 128 122 119 106 100 86 72 49 19 340 324 316 310 315 333 103 105 89 96 93 90 104 230 244 236 230 258 255 273 285 287
297 292 291 295 298 293 287 285 294 292 287 275 271 267 272 286 280 275 284 281 279 274 270 264 263 266 264 270 280 286 283 287 279 260 238 224 237 267 269 259 273 93 119 115 110 110 115 109 106 102 101 102 106 102 113 110 111 101 98 96 113 9 330 312 304 315 325 339 340 92 115 126 123 150 167 201 234 238 243 236 238 254 268 274 279
286 287 285 288 283 278 281 288 287 291 287 278 264 260 254 254 261 269 263 267 274 280 287 284 283 283 281 271 265 259 256 241 236 238 240 224 219 233 246 78 18 113 134 128 129 134 128 126 122 113 103 99 92 100 106 119 136 155 164 159 190 216 242 263 283 278 277 301 330 26 10 50 70 347 324 319 299 284 274 273 278 276 271 272 269
286 289 291 293 290 289 291 290 282 269 266 276 284 285 286 275 279 285 281 274 263 257 251 249 254 262 259 256 248 246 245 248 246 247 246 217 212 220 152 86 75 115 139 138 139 149 149 142 130 124 122 114 107 108 129 154 167 176 191 201 208 206 221 208 225 245 290 349 346 337 351 352 334 284 260 256 260 265 262 263 262 262 267 267 256
281 277 272 269 267 264 263 261 265 276 278 277 275 266 257 251 243 238 240 250 258 260 265 275 278 273 275 277 275 271 263 252 240 227 236 241 214 159 124 139 107 94 108 133 146 146 144 142 130 131 131 132 135 141 146 155 158 186 209 228 226 234 236 229 254 328 322 313 313 314 304 291 278 272 268 257 238 239 239 252 266 272 268 259 251
278 272 270 270 271 273 274 275 268 262 270 270 274 277 277 277 275 277 274 272 278 281 274 261 253 265 270 275 280 283 277 276 276 270 257 242 102 102 128 148 149 148 139 136 141 153 150 142 137 140 140 138 146 156 160 144 157 168 212 211 200 239 263 304 330 322 326 332 307 286 260 263 265 264 260 267 288 308 297 267 256 268 278 288 288
286 285 285 291 288 284 283 294 305 299 294 286 279 281 282 281 275 265 257 250 241 235 234 234 239 236 235 245 250 239 234 243 254 278 309 15 109 142 152 155 184 163 163 155 156 162 163 153 149 152 148 156 158 132 116 123 119 149 145 212 154 91 42 83 51 355 305 301 297 292 281 265 262 272 277 12 289 326 332 347 323 320 305 299 303
292 297 295 289 296 301 301 296 294 294 290 288 281 275 271 271 269 271 280 287 287 276 266 263 263 266 267 255 252 286 282 261 286 62 54 21 349 169 121 70 37 70 136 146 143 131 128 133 136 143 148 127 111 109 81 80 102 93 89 68 50 49 19 22 53 18 339 316 307 299 283 310 14 5 2 359 353 340 329 327 315 299 305 301 295
299 305 307 301 303 304 299 297 294 296 296 294 291 285 280 276 275 270 265 268 273 280 277 277 280 266 254 264 272 259 258 257 165 103 90 69 39 39 46 97 79 61 86 97 107 119 114 102 83 28 4 128 136 120 130 120 100 89 86 84 83 70 3 293 328 333 317 294 280 261 279 21 5 13 353 335 323 331 304 295 290 291 286 293 296
297 312 315 307 298 293 290 286 285 284 281 279 278 280 279 276 278 282 282 278 275 269 266 268 263 262 270 269 273 271 253 264 103 116 111 103 78 39 43 54 76 84 92 89 90 93 95 103 106 88 54 71 95 115 125 103 98 93 83 87 78 324 299 307 352 348 311 285 293 330 11 9 14 356 328 307 310 304 298 293 301 310 304 293 289